STARLINK-1147, 45095

Orbit data source: Space-Track

STARLINK-1147, 45095 is a payload satellite owned by SpaceX/Seattle (US) in LEO that was launched on Wed, 29 Jan 2020 UTC via an FALCON 9 launch vehicle from the Air Force Eastern Test Range (AFETR). Payload-class satellites include a variety of spacecraft equipped with specific instruments for various scientific and technological missions. These include communications satellites like Starlink; space stations such as the ISS; scientific satellites like the Hubble; Earth observation satellites from companies like Planet Labs, Umbra, and HawkEye 360; GPS; miniature CubeSats for education and research; and military/defense satellites.

Not visible in the next 10 days
Identifier
45095, 2020-006BD
Orbit
LEO
Country
Flag of USUS
Related business
Manufacturer
SpaceX/Seattle
Mission
Partially operational Commercial Communications
Bus & Motor
STARLINK, Unknown motor
Mass
260 kg wet, ~248 kg dry
Launch date (UTC)
2020-01-29 (6 years ago)
Launch vehicle
FALCON 9
Launch site
Air Force Eastern Test Range (AFETR)
Object type
Payload
Rocket body
Debris
Shape & HBR
Box + 1 Pan, 10.1 m
Radar Cross Section
13.562 m², Large (>1 m²)

Expand to show TLE details & history
Last TLE update: 5 hours ago

TLE from 5 hours ago
0 STARLINK-1147
1 45095U 20006BD  25286.86799046  .01911718  11856-4  85448-3 0  9998
2 45095  53.0290 120.6542 0004644 272.5075  87.5432 16.21505529315802
Epoch: 2025-10-13T20:49Z
TLE epoch observation values (Epoch: 2025-10-13T20:49:54.375Z)
Latitude
-0.00001°
Longitude
145.51303°
Altitude
216.258 km
Speed
7.778 km/s
True Right ascension
08h 02m 37s
True Declination
0° 00' 00"
Sunlit
Object was in daylight at epoch
Visualization orbit readout
Latitude
Unknown
Longitude
Unknown
Altitude
Unknown
Speed
Unknown
Apparent Right ascension
Unknown
Apparent Declination
Unknown
Sunlit
N/A
Visualization observer readout
Local Sidereal Time
19:54:01
Azimuth
Unknown
Elevation
Unknown
Doppler factor
Unknown
Orbital elements
Apogee altitude
218.818 km
Perigee altitude
212.693 km
Semi-major axis
6,593.893 km
Eccentricity
0.00046
Inclination
53.029°
RAAN
120.6542°
Arg. of periapsis
272.5075°
True anomaly
87.59637°
Mean anomaly
87.5432°
Eccentric anomaly
87.56978°
Mean motion
4.0535 °/min
Orbital period
88.81 mins
BSTAR
0.00085448
Loading maneuver chart data...
Computing Atmospheric mass density...
Loading historical data...
Loading historical data...
Loading historical data...
Loading historical data...
Loading historical data...
Loading historical data...
Loading historical data...

Documentation

Showing up to 5 results
|